• In Belarus
  • List of Countries
  • For 7 days
  • Water Temperature
  • Satellite Maps
  • Weather Map
  • Weather Widgets
  • user-avatar
    Login

    Hourly Weather Elbasan

    Today, 21 January, Monday

    Time Temperature Precipitation Wind Pressure Humidity
    00:00 +5°C° 0 mm 2 mps 734 mmHg 81%
    01:00 +5°C° 0 mm 2 mps 734 mmHg 79%
    02:00 +4°C° 0 mm 2 mps 734 mmHg 78%
    03:00 +4°C° 0 mm 2 mps 734 mmHg 78%
    04:00 +4°C° 0 mm 2 mps 734 mmHg 77%
    05:00 +4°C° 0 mm 2 mps 734 mmHg 77%
    06:00 +4°C° 0 mm 2 mps 734 mmHg 76%
    07:00 +4°C° 0 mm 2 mps 734 mmHg 75%
    08:00 +5°C° 0 mm 2 mps 734 mmHg 73%
    09:00 +7°C° 0 mm 2 mps 734 mmHg 72%
    10:00 +9°C° 0 mm 2 mps 734 mmHg 70%
    11:00 +10°C° 0 mm 1 mps 734 mmHg 67%
    12:00 +11°C° 0 mm 1 mps 734 mmHg 65%
    13:00 +12°C° 0 mm 1 mps 734 mmHg 62%
    14:00 +10°C° 0 mm 2 mps 734 mmHg 65%
    15:00 +10°C° 0 mm 2 mps 734 mmHg 69%
    16:00 +9°C° 0 mm 2 mps 734 mmHg 72%
    17:00 +8°C° 0 mm 2 mps 734 mmHg 74%
    18:00 +7°C° 0 mm 2 mps 734 mmHg 76%
    19:00 +5°C° 0 mm 3 mps 734 mmHg 78%
    20:00 +5°C° 0 mm 3 mps 734 mmHg 78%
    21:00 +5°C° 0 mm 3 mps 734 mmHg 78%
    22:00 +5°C° 0 mm 3 mps 734 mmHg 78%
    23:00 +5°C° 0 mm 3 mps 734 mmHg 79%

    Tomorrow, 22 January, Tuesday

    Time Temperature Precipitation Wind Pressure Humidity
    00:00 +5°C° 0 mm 3 mps 733 mmHg 79%
    01:00 +5°C° 0 mm 3 mps 733 mmHg 79%
    02:00 +5°C° 0.1 mm 3 mps 733 mmHg 80%
    03:00 +5°C° 0.1 mm 3 mps 732 mmHg 80%
    04:00 +5°C° 0.1 mm 3 mps 732 mmHg 80%
    05:00 +5°C° 0.2 mm 3 mps 732 mmHg 80%
    06:00 +5°C° 0.2 mm 3 mps 731 mmHg 80%
    07:00 +5°C° 0.2 mm 3 mps 731 mmHg 81%
    08:00 +7°C° 0.2 mm 3 mps 731 mmHg 79%
    09:00 +8°C° 0.2 mm 3 mps 731 mmHg 76%
    10:00 +9°C° 0.2 mm 3 mps 731 mmHg 74%
    11:00 +9°C° 0.3 mm 3 mps 730 mmHg 75%
    12:00 +9°C° 0.3 mm 3 mps 730 mmHg 76%
    13:00 +10°C° 0.3 mm 3 mps 729 mmHg 76%
    14:00 +9°C° 0.6 mm 3 mps 728 mmHg 78%
    15:00 +9°C° 0.6 mm 2 mps 728 mmHg 80%
    16:00 +8°C° 0.6 mm 2 mps 727 mmHg 82%
    17:00 +8°C° 1.1 mm 2 mps 727 mmHg 84%
    18:00 +7°C° 1.1 mm 2 mps 727 mmHg 85%
    19:00 +7°C° 1.1 mm 2 mps 727 mmHg 87%
    20:00 +7°C° 1.1 mm 2 mps 727 mmHg 87%
    21:00 +7°C° 1.1 mm 2 mps 727 mmHg 87%
    22:00 +7°C° 1.1 mm 2 mps 727 mmHg 88%
    23:00 +6°C° 0.5 mm 2 mps 727 mmHg 90%

    Day after tomorrow, 23 January, Wednesday

    Time Temperature Precipitation Wind Pressure Humidity
    00:00 +6°C° 0.5 mm 2 mps 727 mmHg 92%
    01:00 +6°C° 0.5 mm 2 mps 726 mmHg 94%
    02:00 +6°C° 0.2 mm 2 mps 726 mmHg 93%
    03:00 +6°C° 0.2 mm 2 mps 726 mmHg 93%
    04:00 +5°C° 0.2 mm 2 mps 726 mmHg 92%
    05:00 +5°C° 0.1 mm 2 mps 726 mmHg 90%
    06:00 +5°C° 0.1 mm 2 mps 726 mmHg 89%
    07:00 +5°C° 0.1 mm 2 mps 726 mmHg 87%
    08:00 +6°C° 0.2 mm 2 mps 726 mmHg 84%
    09:00 +7°C° 0.2 mm 2 mps 726 mmHg 82%
    10:00 +8°C° 0.2 mm 2 mps 726 mmHg 80%
    11:00 +9°C° 0.2 mm 2 mps 726 mmHg 75%
    12:00 +9°C° 0.2 mm 2 mps 725 mmHg 71%
    13:00 +10°C° 0.2 mm 2 mps 725 mmHg 66%
    14:00 +9°C° 0 mm 2 mps 724 mmHg 68%
    15:00 +10°C° 0 mm 1 mps 724 mmHg 70%
    16:00 +9°C° 0 mm 0 mps 724 mmHg 72%
    17:00 +9°C° 0 mm 1 mps 724 mmHg 74%
    18:00 +8°C° 0 mm 1 mps 724 mmHg 75%
    19:00 +7°C° 0 mm 1 mps 724 mmHg 77%
    20:00 +7°C° 0 mm 1 mps 724 mmHg 77%
    21:00 +6°C° 0 mm 2 mps 723 mmHg 78%
    22:00 +5°C° 0 mm 2 mps 723 mmHg 79%
    23:00 +6°C° 0.1 mm 2 mps 723 mmHg 80%

    24 January, Thursday

    Time Temperature Precipitation Wind Pressure Humidity
    00:00 +6°C° 0.1 mm 2 mps 722 mmHg 80%
    01:00 +6°C° 0.1 mm 2 mps 722 mmHg 80%
    02:00 +6°C° 0.2 mm 2 mps 721 mmHg 81%
    03:00 +6°C° 0.2 mm 2 mps 721 mmHg 82%
    04:00 +6°C° 0.2 mm 2 mps 720 mmHg 83%
    05:00 +6°C° 0.1 mm 2 mps 720 mmHg 83%
    06:00 +6°C° 0.1 mm 2 mps 720 mmHg 82%
    07:00 +5°C° 0.1 mm 2 mps 720 mmHg 82%
    08:00 +6°C° 0.1 mm 2 mps 720 mmHg 80%
    09:00 +7°C° 0.1 mm 2 mps 720 mmHg 78%
    10:00 +8°C° 0.1 mm 2 mps 720 mmHg 76%
    11:00 +9°C° 0 mm 2 mps 719 mmHg 75%
    12:00 +9°C° 0 mm 2 mps 719 mmHg 74%
    13:00 +11°C° 0 mm 1 mps 719 mmHg 73%
    14:00 +10°C° 0.3 mm 1 mps 719 mmHg 78%
    15:00 +9°C° 0.3 mm 1 mps 720 mmHg 83%
    16:00 +9°C° 0.3 mm 1 mps 720 mmHg 88%
    17:00 +8°C° 0.5 mm 1 mps 720 mmHg 90%
    18:00 +7°C° 0.5 mm 0 mps 721 mmHg 91%
    19:00 +6°C° 0.5 mm 0 mps 721 mmHg 93%
    20:00 +7°C° 0.1 mm 1 mps 721 mmHg 91%
    21:00 +7°C° 0.1 mm 1 mps 721 mmHg 89%
    22:00 +6°C° 0.1 mm 2 mps 722 mmHg 88%
    23:00 +6°C° 0 mm 2 mps 722 mmHg 86%

    25 January, Friday

    Time Temperature Precipitation Wind Pressure Humidity
    00:00 +5°C° 0 mm 2 mps 721 mmHg 85%
    01:00 +5°C° 0 mm 2 mps 721 mmHg 83%
    02:00 +5°C° 0 mm 2 mps 721 mmHg 83%
    03:00 +5°C° 0 mm 2 mps 721 mmHg 83%
    04:00 +5°C° 0 mm 2 mps 721 mmHg 83%
    05:00 +5°C° 0.1 mm 2 mps 722 mmHg 82%
    06:00 +4°C° 0.1 mm 3 mps 722 mmHg 82%
    07:00 +4°C° 0.1 mm 3 mps 722 mmHg 82%
    08:00 +5°C° 0 mm 3 mps 722 mmHg 79%
    09:00 +7°C° 0 mm 3 mps 722 mmHg 76%
    10:00 +8°C° 0 mm 3 mps 722 mmHg 73%
    11:00 +8°C° 0.2 mm 2 mps 722 mmHg 73%
    12:00 +8°C° 0.2 mm 2 mps 721 mmHg 72%
    13:00 +9°C° 0.2 mm 2 mps 721 mmHg 72%
    14:00 +8°C° 0.4 mm 2 mps 721 mmHg 75%
    15:00 +9°C° 0.4 mm 1 mps 721 mmHg 78%
    16:00 +8°C° 0.4 mm 1 mps 721 mmHg 82%
    17:00 +8°C° 0.5 mm 1 mps 721 mmHg 83%
    18:00 +6°C° 0.5 mm 2 mps 721 mmHg 84%
    19:00 +6°C° 0.5 mm 2 mps 722 mmHg 85%
    20:00 +5°C° 0 mm 2 mps 722 mmHg 84%
    21:00 +5°C° 0 mm 2 mps 722 mmHg 83%
    22:00 +4°C° 0 mm 2 mps 722 mmHg 82%
    23:00 +4°C° 0 mm 2 mps 722 mmHg 81%

    26 January, Saturday

    Time Temperature Precipitation Wind Pressure Humidity
    00:00 +4°C° 0 mm 2 mps 723 mmHg 80%
    01:00 +4°C° 0 mm 2 mps 723 mmHg 79%
    02:00 +4°C° 0 mm 2 mps 723 mmHg 79%
    03:00 +3°C° 0 mm 2 mps 723 mmHg 79%
    04:00 +3°C° 0 mm 2 mps 723 mmHg 79%
    05:00 +3°C° 0 mm 2 mps 724 mmHg 79%
    06:00 +2°C° 0 mm 2 mps 724 mmHg 79%
    07:00 +1°C° 0 mm 3 mps 725 mmHg 79%
    08:00 +2°C° 0 mm 3 mps 725 mmHg 75%
    09:00 +4°C° 0 mm 3 mps 726 mmHg 71%
    10:00 +5°C° 0 mm 3 mps 726 mmHg 67%
    11:00 +7°C° 0 mm 3 mps 727 mmHg 64%
    12:00 +8°C° 0 mm 2 mps 727 mmHg 62%
    13:00 +9°C° 0 mm 2 mps 727 mmHg 59%
    14:00 +8°C° 0 mm 2 mps 727 mmHg 62%
    15:00 +8°C° 0 mm 2 mps 727 mmHg 65%
    16:00 +8°C° 0 mm 1 mps 728 mmHg 68%
    17:00 +6°C° 0 mm 2 mps 728 mmHg 70%
    18:00 +5°C° 0 mm 2 mps 728 mmHg 73%
    19:00 +4°C° 0 mm 2 mps 729 mmHg 76%
    20:00 +3°C° 0 mm 2 mps 729 mmHg 77%
    21:00 +3°C° 0 mm 2 mps 729 mmHg 77%
    22:00 +3°C° 0 mm 2 mps 730 mmHg 77%
    23:00 +2°C° 0 mm 2 mps 730 mmHg 77%
    Show more